Elmendorf AFB, AK

10:54 AM AKDT on March 27, 2017 (GMT -0800)
Elmendorf Air Force Base

Weather History for PAED - May, 2013

Change the Weather History Date:

Thursday, May 16, 2013

  Actual Average Record
Temperature  
Mean Temperature 38 °F -  
Max Temperature 41 °F 54 °F 77 °F (1993)
Min Temperature 36 °F 39 °F 28 °F (2000)
Degree Days  
Heating Degree Days 26    
Moisture  
Dew Point 35 °F    
Average Humidity 87    
Maximum Humidity 100    
Minimum Humidity 57    
Precipitation  
Precipitation 0.05 in - - ()
Sea Level Pressure  
Sea Level Pressure 29.56 in    
Wind  
Wind Speed 7 mph (NNE)    
Max Wind Speed 10 mph    
Max Gust Speed -    
Visibility 10 miles    
Events Rain    
Averages and records for this station are not official NWS values.
T = Trace of Precipitation, MM = Missing Value Source: NWS Daily Summary

Daily Weather History Graph

Daily Weather History Graph

Search for Another Location

Airport or City:

Trip Planner

Search our weather history database for the weather conditions in past years. The results will help you decide how hot, cold, wet, or windy it might be!

Date:

Astronomy

May. 16, 2013 Rise Set
Actual Time 5:08 AM AKDT 10:44 PM AKDT
Civil Twilight 3:56 AM AKDT 11:58 PM AKDT
Nautical Twilight 2:27 AM AKDT Sun does not rise
Astronomical Twilight Sun does not rise Sun does not rise
Moon 11:31 AM AKDT (5/16) 2:34 AM AKDT (5/16)
Length of Visible Light 20h 02m
Length of Day
17h 36m
Waxing Crescent, 37% of the Moon is Illuminated
May 16
Waxing Crescent
May 17
First Quarter
May 24
Full
May 31
Last Quarter
Jun 8
New

Hourly Weather History & Observations

Time (AKDT) Temp. Windchill Dew Point Humidity Pressure Visibility Wind Dir Wind Speed Gust Speed Precip Events Conditions
12:55 AM 41.2 °F 37.3 °F 27.0 °F 57% 29.73 in 10.0 mi NNE 5.8 mph - N/A   Partly Cloudy
1:55 AM 40.5 °F 34.1 °F 26.8 °F 58% 29.73 in 10.0 mi NE 10.4 mph - N/A   Scattered Clouds
2:55 AM 40.3 °F 34.9 °F 26.8 °F 59% 29.71 in 10.0 mi NNE 8.1 mph - N/A   Partly Cloudy
3:55 AM 40.1 °F 34.7 °F 26.8 °F 59% 29.70 in 10.0 mi NNE 8.1 mph - N/A   Clear
4:55 AM 39.4 °F 34.5 °F 28.2 °F 64% 29.69 in 10.0 mi North 6.9 mph - N/A   Clear
5:28 AM 39.2 °F 35.9 °F 28.4 °F 65% 29.69 in 10.0 mi North 4.6 mph - N/A   Mostly Cloudy
5:55 AM 38.5 °F 34.1 °F 29.5 °F 70% 29.68 in 10.0 mi NNW 5.8 mph - 0.00 in Rain Light Rain
6:55 AM 37.8 °F 32.5 °F 31.6 °F 79% 29.67 in 10.0 mi North 6.9 mph - 0.00 in Rain Light Rain
7:19 AM 37.4 °F 33.8 °F 32.0 °F 81% 29.67 in 10.0 mi NNE 4.6 mph - N/A Rain Light Rain
7:24 AM 37.4 °F 32.8 °F 32.0 °F 81% 29.67 in 10.0 mi NNE 5.8 mph - N/A Rain Light Rain
7:54 AM 37.4 °F 32.1 °F 32.0 °F 81% 29.65 in 10.0 mi NNE 6.9 mph - N/A Rain Light Rain
7:55 AM 37.4 °F 32.1 °F 32.2 °F 81% 29.65 in 10.0 mi NNE 6.9 mph - 0.00 in Rain Light Rain
8:55 AM 36.7 °F 29.9 °F 33.8 °F 89% 29.63 in 10.0 mi NNE 9.2 mph - 0.02 in Rain Light Rain
9:05 AM 37.4 °F 30.3 °F 33.8 °F 87% 29.63 in 10.0 mi NNE 10.4 mph - N/A Rain Light Rain
9:31 AM 37.4 °F 31.4 °F 33.8 °F 87% 29.62 in 10.0 mi NNE 8.1 mph - N/A   Mostly Cloudy
9:55 AM 37.2 °F 30.0 °F 34.0 °F 88% 29.62 in 10.0 mi NNW 10.4 mph - 0.00 in   Mostly Cloudy
10:55 AM 37.6 °F 33.1 °F 34.5 °F 89% 29.60 in 10.0 mi NNE 5.8 mph - N/A   Mostly Cloudy
11:24 AM 37.4 °F 34.9 °F 33.8 °F 87% 29.60 in 10.0 mi North 3.5 mph - N/A   Mostly Cloudy
11:26 AM 37.4 °F 32.8 °F 33.8 °F 87% 29.60 in 10.0 mi Variable 5.8 mph - N/A   Light Drizzle
11:29 AM 37.4 °F 34.9 °F 33.8 °F 87% 29.60 in 10.0 mi Variable 3.5 mph - N/A   Mostly Cloudy
11:55 AM 37.6 °F - 34.7 °F 89% 29.60 in 10.0 mi Calm Calm - 0.00 in   Overcast
12:55 PM 38.1 °F 32.3 °F 34.9 °F 88% 29.59 in 10.0 mi NE 8.1 mph - N/A   Overcast
1:37 PM 39.2 °F 34.2 °F 35.6 °F 87% 29.58 in 10.0 mi Variable 6.9 mph - N/A   Mostly Cloudy
1:55 PM 38.8 °F 36.5 °F 35.6 °F 88% 29.58 in 10.0 mi NE 3.5 mph - N/A   Mostly Cloudy
2:04 PM 39.2 °F 34.2 °F 35.6 °F 87% 29.58 in 10.0 mi Variable 6.9 mph - N/A   Mostly Cloudy
2:29 PM 39.2 °F 34.2 °F 35.6 °F 87% 29.57 in 10.0 mi NNE 6.9 mph - N/A   Overcast
2:46 PM 39.2 °F 35.9 °F 35.6 °F 87% 29.56 in 10.0 mi NE 4.6 mph - N/A   Overcast
2:55 PM 39.7 °F 35.6 °F 36.0 °F 86% 29.57 in 10.0 mi Variable 5.8 mph - N/A   Overcast
3:55 PM 40.3 °F - 36.3 °F 86% 29.55 in 10.0 mi Calm Calm - N/A   Overcast
4:50 PM 41.0 °F 36.4 °F 35.6 °F 81% 29.54 in 10.0 mi NNE 6.9 mph - N/A   Mostly Cloudy
4:55 PM 40.8 °F 37.8 °F 36.7 °F 85% 29.54 in 10.0 mi North 4.6 mph - N/A   Mostly Cloudy
4:56 PM 41.0 °F 37.1 °F 37.4 °F 87% 29.54 in 10.0 mi Variable 5.8 mph - N/A   Mostly Cloudy
5:48 PM 41.0 °F 37.1 °F 37.4 °F 87% 29.52 in 10.0 mi North 5.8 mph - N/A   Overcast
5:55 PM 40.6 °F 36.0 °F 37.2 °F 88% 29.52 in 10.0 mi Variable 6.9 mph - 0.00 in   Light Drizzle
6:14 PM 41.0 °F 37.1 °F 37.4 °F 87% 29.52 in 10.0 mi Variable 5.8 mph - N/A   Mostly Cloudy
6:15 PM 41.0 °F 36.4 °F 37.4 °F 87% 29.52 in 10.0 mi Variable 6.9 mph - N/A   Scattered Clouds
6:44 PM 41.0 °F 36.4 °F 37.4 °F 87% 29.51 in 10.0 mi NNE 6.9 mph - N/A   Mostly Cloudy
6:47 PM 41.0 °F 36.4 °F 37.4 °F 87% 29.51 in 10.0 mi Variable 6.9 mph - N/A   Light Drizzle
6:55 PM 40.5 °F 35.1 °F 37.4 °F 89% 29.51 in 10.0 mi NNE 8.1 mph - 0.00 in   Light Drizzle
7:10 PM 41.0 °F 37.1 °F 37.4 °F 87% 29.51 in 10.0 mi NNE 5.8 mph - N/A Rain Light Rain
7:22 PM 39.2 °F 34.2 °F 37.4 °F 93% 29.51 in 10.0 mi NE 6.9 mph - N/A Rain Light Rain
7:31 PM 41.0 °F 35.8 °F 37.4 °F 87% 29.50 in 10.0 mi NNE 8.1 mph - N/A   Light Drizzle
7:38 PM 39.2 °F 34.2 °F 37.4 °F 93% 29.50 in 10.0 mi NNE 6.9 mph - N/A   Mostly Cloudy
7:55 PM 39.7 °F 35.6 °F 38.1 °F 94% 29.49 in 10.0 mi NNE 5.8 mph - 0.00 in   Overcast
8:16 PM 39.2 °F 34.2 °F 39.2 °F 100% 29.49 in 10.0 mi NE 6.9 mph - N/A   Light Drizzle
8:40 PM 39.2 °F 35.9 °F 39.2 °F 100% 29.49 in 10.0 mi NE 4.6 mph - N/A Rain Light Rain
8:55 PM 39.6 °F 36.3 °F 38.8 °F 97% 29.48 in 10.0 mi North 4.6 mph - 0.00 in   Light Drizzle
9:18 PM 39.2 °F 33.6 °F 39.2 °F 100% 29.48 in 10.0 mi NNE 8.1 mph - N/A Rain Light Rain
9:30 PM 39.2 °F 33.0 °F 39.2 °F 100% 29.47 in 10.0 mi North 9.2 mph - N/A Rain Light Rain
9:31 PM 39.2 °F 33.0 °F 39.2 °F 100% 29.47 in 10.0 mi North 9.2 mph - N/A Rain Light Rain
9:49 PM 39.2 °F 33.0 °F 39.2 °F 100% 29.47 in 10.0 mi North 9.2 mph - N/A Rain Light Rain
9:55 PM 39.0 °F 33.4 °F 38.5 °F 98% 29.47 in 10.0 mi North 8.1 mph - 0.00 in   Light Drizzle
9:58 PM 39.2 °F 34.2 °F 39.2 °F 100% 29.47 in 10.0 mi North 6.9 mph - N/A Rain Light Rain
10:06 PM 39.2 °F 33.0 °F 39.2 °F 100% 29.47 in 10.0 mi NNE 9.2 mph - N/A   Overcast
10:08 PM 39.2 °F 33.0 °F 39.2 °F 100% 29.47 in 10.0 mi NNE 9.2 mph - N/A Rain Light Rain
10:26 PM 39.2 °F 33.0 °F 37.4 °F 93% 29.47 in 10.0 mi North 9.2 mph - N/A Rain Light Rain
10:28 PM 39.2 °F 33.0 °F 37.4 °F 93% 29.47 in 10.0 mi North 9.2 mph - N/A Rain Light Rain
10:55 PM 38.5 °F 34.1 °F 37.8 °F 97% 29.47 in 10.0 mi NNE 5.8 mph - 0.01 in Rain Light Rain
11:42 PM 37.4 °F 32.1 °F 37.4 °F 100% 29.47 in 10.0 mi North 6.9 mph - N/A Rain Light Rain
11:45 PM 37.4 °F 32.1 °F 37.4 °F 100% 29.47 in 10.0 mi North 6.9 mph - N/A Rain Light Rain
11:55 PM 37.9 °F 33.5 °F 37.8 °F 99% 29.46 in 10.0 mi Variable 5.8 mph - 0.02 in Rain Light Rain
11:57 PM 37.4 °F 32.1 °F 37.4 °F 100% 29.46 in 10.0 mi NNE 6.9 mph - N/A Rain Light Rain